Iona Mcallister — WDD4840 — position and weather

sailwx.info

Track history (hours):
 
Tides and Currents Weather Stations Pressure Air Temp Water Temp Dewpoint Dewpoint Depression Visibility Wind Speed Wind Dir Waves Ship Positions

Iona Mcallister

Owner: McAllister Towing & Transportation Co. Inc., Staten Island, NY. More information available from US FCC via Universal Licensing System and Coast Guard Vessel Documentation Center.

Last reported at 2017-Oct-16 23:31 UTC. Time now 2017-Oct-17 05:44 UTC.
Position N 41°49' W 071°24'.

Length 36 m; draft 3 m.

Type: Towing. MMSI: 367149890.

Date/timePositionNaut miles runAvg speedWind from/ knotsBaromVisibWave heightAir tempDewpointWater temp
2017-Oct-16 23:31N 41°49' W 071°24'0 0.0
2017-Oct-16 23:30N 41°49' W 071°24'2 4.2
2017-Oct-16 22:58N 41°47' W 071°22'0 0.0
2017-Oct-16 08:05N 41°47' W 071°23'0 2.8
2017-Oct-16 08:00N 41°47' W 071°22'0 0.1
2017-Oct-16 07:28N 41°47' W 071°22'0 0.1
2017-Oct-16 07:00N 41°47' W 071°22'0 0.3
2017-Oct-16 06:30N 41°47' W 071°22'0 0.0
2017-Oct-16 05:57N 41°47' W 071°22'0 0.0
2017-Oct-16 05:30N 41°47' W 071°22'0 0.0
2017-Oct-16 03:37N 41°47' W 071°22'0 0.0
2017-Oct-16 03:19N 41°47' W 071°22'0 0.0
2017-Oct-16 02:34N 41°47' W 071°22'0 0.1
2017-Oct-16 02:30N 41°47' W 071°22'0 0.0
2017-Oct-16 01:42N 41°47' W 071°22'0 0.9
2017-Oct-16 01:30N 41°47' W 071°22'5 9.6
2017-Oct-16 00:59N 41°42' W 071°20'4 0.3
2017-Oct-15 11:51N 41°38' W 071°18'410.7
2017-Oct-15 11:30N 41°41' W 071°19'6 9.9
2017-Oct-15 10:53N 41°47' W 071°22'0 0.3
2017-Oct-15 10:30N 41°47' W 071°22'0 0.0
2017-Oct-15 02:43N 41°47' W 071°22'0 0.1
2017-Oct-15 02:30N 41°47' W 071°22'0 0.5
2017-Oct-15 02:00N 41°47' W 071°22'0 0.0
2017-Oct-14 19:54N 41°47' W 071°22'4 8.7
2017-Oct-14 19:29N 41°43' W 071°21'4 8.0
2017-Oct-14 18:59N 41°39' W 071°23'3 0.6
2017-Oct-14 13:44N 41°37' W 071°24'0 0.0
2017-Oct-14 13:23N 41°37' W 071°24'0 0.0
2017-Oct-14 13:00N 41°37' W 071°24'0 0.0
2017-Oct-14 11:45N 41°37' W 071°24'0 0.0
2017-Oct-14 11:28N 41°37' W 071°24'0 0.0
2017-Oct-14 10:59N 41°37' W 071°24'1 0.0
2017-Oct-13 12:38N 41°36' W 071°24'1 2.1
2017-Oct-13 12:11N 41°37' W 071°24'0 0.0
2017-Oct-13 11:56N 41°37' W 071°24'0 0.0
2017-Oct-13 11:29N 41°37' W 071°24'0 0.2
2017-Oct-13 11:00N 41°37' W 071°24'1 0.9
2017-Oct-13 10:29N 41°36' W 071°24'1 0.1
2017-Oct-12 23:31N 41°35' W 071°24'0 3.7
2017-Oct-12 23:30N 41°35' W 071°24'1 0.1
2017-Oct-12 10:23N 41°36' W 071°24'1 1.4
2017-Oct-12 09:57N 41°37' W 071°24'1 0.2
2017-Oct-12 05:29N 41°36' W 071°24'4 8.4
2017-Oct-12 05:00N 41°40' W 071°22'4 7.1
2017-Oct-12 04:30N 41°43' W 071°21'4 7.6
2017-Oct-12 03:57N 41°47' W 071°22'0 0.1
2017-Oct-12 03:30N 41°47' W 071°22'1 1.9
2017-Oct-12 03:01N 41°46' W 071°23'1 0.0
2017-Oct-10 21:32N 41°47' W 071°23'1 8.6
2017-Oct-10 21:28N 41°47' W 071°22'5 8.7
2017-Oct-10 20:56N 41°42' W 071°20'5 8.3
2017-Oct-10 20:21N 41°38' W 071°22'2 0.5
2017-Oct-10 16:15N 41°37' W 071°24'2 1.9
2017-Oct-10 15:26N 41°35' W 071°24'1 2.4
2017-Oct-10 14:59N 41°36' W 071°23'7 7.4
2017-Oct-10 14:00N 41°43' W 071°21'4 0.2
2017-Oct-09 15:28N 41°47' W 071°22'0 0.0
2017-Oct-08 19:59N 41°47' W 071°22'4 8.9
2017-Oct-08 19:30N 41°43' W 071°20'29 1.7
2017-Oct-08 02:08N 41°37' W 070°42'1 4.5
2017-Oct-08 01:55N 41°38' W 070°42'2 4.3
2017-Oct-08 01:29N 41°39' W 070°41'27 2.8
2017-Oct-07 15:35N 41°38' W 071°18'1 9.0
2017-Oct-07 15:27N 41°39' W 071°19'4 9.5
2017-Oct-07 15:00N 41°43' W 071°20'6 1.2
2017-Oct-07 09:57N 41°48' W 071°24'2 0.6
2017-Oct-07 07:22N 41°47' W 071°22'0 0.0
2017-Oct-07 07:00N 41°47' W 071°22'0 1.0
2017-Oct-07 06:30N 41°46' W 071°22'0 1.0
2017-Oct-07 06:00N 41°47' W 071°22'1 0.1
2017-Oct-07 01:43N 41°47' W 071°23'  
Track history (hours):
 
Tides and Currents Weather Stations Pressure Air Temp Water Temp Dewpoint Dewpoint Depression Visibility Wind Speed Wind Dir Waves Ship Positions

Iona Mcallister

Owner: McAllister Towing & Transportation Co. Inc., Staten Island, NY. More information available from US FCC via Universal Licensing System and Coast Guard Vessel Documentation Center.

Last reported at 2017-Oct-16 23:31 UTC. Time now 2017-Oct-17 05:44 UTC.
Position N 41°49' W 071°24'.

Length 36 m; draft 3 m.

Type: Towing. MMSI: 367149890.

Date/timePositionNaut miles runAvg speedWind from/ knotsBaromVisibWave heightAir tempDewpointWater temp
2017-Oct-16 23:31N 41°49' W 071°24'0 0.0
2017-Oct-16 23:30N 41°49' W 071°24'2 4.2
2017-Oct-16 22:58N 41°47' W 071°22'0 0.0
2017-Oct-16 08:05N 41°47' W 071°23'0 2.8
2017-Oct-16 08:00N 41°47' W 071°22'0 0.1
2017-Oct-16 07:28N 41°47' W 071°22'0 0.1
2017-Oct-16 07:00N 41°47' W 071°22'0 0.3
2017-Oct-16 06:30N 41°47' W 071°22'0 0.0
2017-Oct-16 05:57N 41°47' W 071°22'0 0.0
2017-Oct-16 05:30N 41°47' W 071°22'0 0.0
2017-Oct-16 03:37N 41°47' W 071°22'0 0.0
2017-Oct-16 03:19N 41°47' W 071°22'0 0.0
2017-Oct-16 02:34N 41°47' W 071°22'0 0.1
2017-Oct-16 02:30N 41°47' W 071°22'0 0.0
2017-Oct-16 01:42N 41°47' W 071°22'0 0.9
2017-Oct-16 01:30N 41°47' W 071°22'5 9.6
2017-Oct-16 00:59N 41°42' W 071°20'4 0.3
2017-Oct-15 11:51N 41°38' W 071°18'410.7
2017-Oct-15 11:30N 41°41' W 071°19'6 9.9
2017-Oct-15 10:53N 41°47' W 071°22'0 0.3
2017-Oct-15 10:30N 41°47' W 071°22'0 0.0
2017-Oct-15 02:43N 41°47' W 071°22'0 0.1
2017-Oct-15 02:30N 41°47' W 071°22'0 0.5
2017-Oct-15 02:00N 41°47' W 071°22'0 0.0
2017-Oct-14 19:54N 41°47' W 071°22'4 8.7
2017-Oct-14 19:29N 41°43' W 071°21'4 8.0
2017-Oct-14 18:59N 41°39' W 071°23'3 0.6
2017-Oct-14 13:44N 41°37' W 071°24'0 0.0
2017-Oct-14 13:23N 41°37' W 071°24'0 0.0
2017-Oct-14 13:00N 41°37' W 071°24'0 0.0
2017-Oct-14 11:45N 41°37' W 071°24'0 0.0
2017-Oct-14 11:28N 41°37' W 071°24'0 0.0
2017-Oct-14 10:59N 41°37' W 071°24'1 0.0
2017-Oct-13 12:38N 41°36' W 071°24'1 2.1
2017-Oct-13 12:11N 41°37' W 071°24'0 0.0
2017-Oct-13 11:56N 41°37' W 071°24'0 0.0
2017-Oct-13 11:29N 41°37' W 071°24'0 0.2
2017-Oct-13 11:00N 41°37' W 071°24'1 0.9
2017-Oct-13 10:29N 41°36' W 071°24'1 0.1
2017-Oct-12 23:31N 41°35' W 071°24'0 3.7
2017-Oct-12 23:30N 41°35' W 071°24'1 0.1
2017-Oct-12 10:23N 41°36' W 071°24'1 1.4
2017-Oct-12 09:57N 41°37' W 071°24'1 0.2
2017-Oct-12 05:29N 41°36' W 071°24'4 8.4
2017-Oct-12 05:00N 41°40' W 071°22'4 7.1
2017-Oct-12 04:30N 41°43' W 071°21'4 7.6
2017-Oct-12 03:57N 41°47' W 071°22'0 0.1
2017-Oct-12 03:30N 41°47' W 071°22'1 1.9
2017-Oct-12 03:01N 41°46' W 071°23'1 0.0
2017-Oct-10 21:32N 41°47' W 071°23'1 8.6
2017-Oct-10 21:28N 41°47' W 071°22'5 8.7
2017-Oct-10 20:56N 41°42' W 071°20'5 8.3
2017-Oct-10 20:21N 41°38' W 071°22'2 0.5
2017-Oct-10 16:15N 41°37' W 071°24'2 1.9
2017-Oct-10 15:26N 41°35' W 071°24'1 2.4
2017-Oct-10 14:59N 41°36' W 071°23'7 7.4
2017-Oct-10 14:00N 41°43' W 071°21'4 0.2
2017-Oct-09 15:28N 41°47' W 071°22'0 0.0
2017-Oct-08 19:59N 41°47' W 071°22'4 8.9
2017-Oct-08 19:30N 41°43' W 071°20'29 1.7
2017-Oct-08 02:08N 41°37' W 070°42'1 4.5
2017-Oct-08 01:55N 41°38' W 070°42'2 4.3
2017-Oct-08 01:29N 41°39' W 070°41'27 2.8
2017-Oct-07 15:35N 41°38' W 071°18'1 9.0
2017-Oct-07 15:27N 41°39' W 071°19'4 9.5
2017-Oct-07 15:00N 41°43' W 071°20'6 1.2
2017-Oct-07 09:57N 41°48' W 071°24'2 0.6
2017-Oct-07 07:22N 41°47' W 071°22'0 0.0
2017-Oct-07 07:00N 41°47' W 071°22'0 1.0
2017-Oct-07 06:30N 41°46' W 071°22'0 1.0
2017-Oct-07 06:00N 41°47' W 071°22'1 0.1
2017-Oct-07 01:43N 41°47' W 071°23'  

Dump ship's entire track history